Back to catalog

CZ-6A DEB

AliveSSO
NORAD 55512·DEBRIS·🇨🇳 China

Launched Nov 11, 2022 from Taiyuan Satellite Launch Center

Loading…

Next Passes (next 24 hours)

TLE

FreshSource: Space-Track

Epoch: Sep 14, 2026, 00:18 UTC

1 55512U 22151XJ  26257.01284397  .00004394  00000-0  13414-2 0  9990
2 55512  98.6833 273.7815 0048411 225.3444 134.3794 14.41733623180747

Track CZ-6A DEB in real time with AllMySat

Download on the App Store